Hourly Data Report for October 25, 2013

All times are specified in Local Standard Time (LST). Add 1 hour to adjust for Daylight Saving Time where and when it is observed.

PETAWAWA AWOS 2
ONTARIO

45°57'00.000" N
77°19'00.000" W
130.10 m
6106396
71625
YWA

Download Data

Hourly Data (October 2013)
Hourly Data Report for October 25, 2013
Temp Definition
°C
Dew Point Temp Definition
°C
Rel Hum Definition
%
Wind Dir Definition
10's deg

Wind Spd Definition
km/h
Visibility Definition
km
Stn Press Definition
kPa
Hmdx Definition


Wind Chill Definition


Weather Definition


TIME
00:00 1.9 -1.3 79 28 11 15.0 99.90      
01:00 0.9 -1.8 82 25 6 15.0 99.96      
02:00 1.2 -1.8 80 26 4 15.0 100.00      
03:00 1.6 -1.6 79 26 6 15.0 100.03      
04:00 1.9 -2.4 73 30 9 15.0 100.11      
05:00 1.4 -2.8 74 27 6 15.0 100.17      
06:00 1.2 -2.5 76 25 6 15.0 100.22      
07:00 1.8 -2.6 73 26 6 15.0 100.30      
08:00 2.3 -3.3 66 27 9 15.0 100.37      
09:00 2.9 -3.5 63 27 13 15.0 100.41      
10:00 3.2 -3.8 60 27 13 15.0 100.40      
11:00 4.0 -3.7 57 25 13 15.0 100.39      
12:00 3.9 -4.7 53 28 13 15.0 100.35      
13:00 5.1 -4.7 49 25 9 15.0 100.30      
14:00 5.5 -5.5 45 27 13 15.0 100.29      
15:00 5.6 -5.3 45 25 17 15.0 100.30      
16:00 5.4 -4.3 50 26 9 15.0 100.28      
17:00 4.9 -4.4 51 28 7 15.0 100.26      
18:00 2.1 -3.6 66 17 4 15.0 100.27      
19:00 -0.2 -3.0 81   0 15.0 100.23      
20:00 0.9 -3.3 73 18 6 15.0 100.20      
21:00 1.7 -3.3 69 16 6 15.0 100.16      
22:00 2.0 -3.6 66 13 4 15.0 100.10      
23:00 2.3 -3.8 64 14 6 15.0 100.01      

Notes on Data Quality.

Legend

  • E = Estimated
  • M = Missing
  • NA = Not Available
  • ‡ = Partner data that is not subject to review by the National Climate Archives
Date modified: